| time (UTC) | temp C | wind direction | speed KPH | gust KPH | rain 1hr cm | rain 24hr cm | rain mn cm | humidity % | barometer mb |
| 20260506081549 | 16 | 143 | 4.8 | 14.5 | 0.00 | 0.03 | 0.00 | 63 | 1005.8 |
| 20260506073030 | 17 | 163 | 3.2 | 11.3 | 0.00 | 0.03 | 0.00 | 61 | 1006.1 |
| 20260506071528 | 17 | 134 | 6.4 | 14.5 | 0.00 | 0.03 | 0.00 | 60 | 1006.2 |
| 20260506061520 | 17 | 142 | 4.8 | 17.7 | 0.00 | 0.03 | 0.00 | 56 | 1006.5 |
| 20260506044508 | 17 | 118 | 8.0 | 17.7 | 0.00 | 0.03 | 0.00 | 54 | 1007.2 |
| 20260506043006 | 17 | 155 | 6.4 | 14.5 | 0.00 | 0.03 | 0.00 | 54 | 1007.3 |
| 20260506041505 | 18 | 148 | 6.4 | 14.5 | 0.00 | 0.03 | 0.00 | 53 | 1007.3 |
| 20260506040001 | 18 | 145 | 4.8 | 12.9 | 0.00 | 0.03 | 0.00 | 52 | 1007.4 |
| 20260506034600 | 18 | 148 | 6.4 | 14.5 | 0.00 | 0.03 | 0.03 | 52 | 1007.4 |
| 20260506033101 | 18 | 138 | 6.4 | 16.1 | 0.00 | 0.03 | 0.03 | 51 | 1007.3 |
| 20260506031700 | 18 | 146 | 3.2 | 11.3 | 0.00 | 0.03 | 0.03 | 51 | 1007.3 |
| 20260506030059 | 18 | 145 | 4.8 | 12.9 | 0.00 | 0.03 | 0.03 | 50 | 1007.3 |
| 20260506024600 | 19 | 126 | 8.0 | 16.1 | 0.00 | 0.03 | 0.03 | 48 | 1007.3 |
| 20260506023108 | 20 | 152 | 4.8 | 11.3 | 0.00 | 0.03 | 0.03 | 46 | 1007.4 |
| 20260506021617 | 20 | 161 | 6.4 | 19.3 | 0.00 | 0.03 | 0.03 | 45 | 1007.5 |
| 20260506020056 | 20 | 200 | 8.0 | 19.3 | 0.00 | 0.03 | 0.03 | 45 | 1007.4 |
| 20260506014556 | 21 | 140 | 6.4 | 16.1 | 0.00 | 0.03 | 0.03 | 44 | 1007.4 |
| 20260506013108 | 21 | 178 | 9.7 | 16.1 | 0.00 | 0.03 | 0.03 | 43 | 1007.3 |
| 20260506011615 | 21 | 171 | 4.8 | 14.5 | 0.00 | 0.03 | 0.03 | 44 | 1007.1 |
| 20260506010058 | 21 | 137 | 6.4 | 17.7 | 0.00 | 0.03 | 0.03 | 43 | 1006.8 |
| 20260506004554 | 21 | 142 | 9.7 | 22.5 | 0.00 | 0.03 | 0.03 | 43 | 1006.6 |
| 20260506003056 | 21 | 163 | 4.8 | 16.1 | 0.00 | 0.03 | 0.03 | 42 | 1006.6 |
| 20260506001556 | 22 | 200 | 9.7 | 16.1 | 0.00 | 0.03 | 0.03 | 42 | 1006.5 |
| 20260506000053 | 22 | 158 | 8.0 | 14.5 | 0.00 | 0.03 | 0.03 | 41 | 1006.3 |
| 20260505234552 | 22 | 134 | 6.4 | 14.5 | 0.00 | 0.03 | 0.03 | 39 | 1006.3 |
| 20260505233051 | 22 | 177 | 6.4 | 14.5 | 0.00 | 0.03 | 0.03 | 37 | 1006.2 |
| 20260505231605 | 22 | 160 | 4.8 | 16.1 | 0.00 | 0.03 | 0.03 | 37 | 1006.2 |
| 20260505230049 | 22 | 132 | 6.4 | 14.5 | 0.00 | 0.03 | 0.03 | 38 | 1006.1 |
| 20260505224548 | 22 | 196 | 4.8 | 22.5 | 0.00 | 0.03 | 0.03 | 37 | 1006.1 |
| 20260505223048 | 22 | 150 | 8.0 | 19.3 | 0.00 | 0.03 | 0.03 | 37 | 1006.0 |
| 20260505221547 | 23 | 123 | 6.4 | 22.5 | 0.00 | 0.03 | 0.03 | 37 | 1006.0 |
| 20260505220051 | 23 | 145 | 9.7 | 20.9 | 0.00 | 0.03 | 0.03 | 36 | 1005.9 |
| 20260505214554 | 23 | 149 | 8.0 | 27.4 | 0.00 | 0.03 | 0.03 | 36 | 1005.8 |
| 20260505213044 | 23 | 159 | 11.3 | 24.1 | 0.00 | 0.03 | 0.03 | 35 | 1005.8 |
| 20260505211543 | 23 | 152 | 8.0 | 30.6 | 0.00 | 0.03 | 0.03 | 33 | 1005.7 |
| 20260505210044 | 24 | 133 | 12.9 | 25.7 | 0.00 | 0.03 | 0.03 | 33 | 1005.6 |
| 20260505204539 | 24 | 146 | 11.3 | 32.2 | 0.00 | 0.03 | 0.03 | 33 | 1005.4 |
| 20260505203054 | 25 | 166 | 12.9 | 25.7 | 0.00 | 0.03 | 0.03 | 32 | 1005.6 |
| 20260505201543 | 25 | 155 | 11.3 | 30.6 | 0.00 | 0.03 | 0.03 | 32 | 1005.4 |
| 20260505200043 | 25 | 172 | 14.5 | 25.7 | 0.00 | 0.03 | 0.03 | 33 | 1005.4 |
| 20260505194537 | 25 | 193 | 12.9 | 25.7 | 0.00 | 0.03 | 0.03 | 33 | 1005.7 |
| 20260505193034 | 26 | 215 | 8.0 | 29.0 | 0.00 | 0.03 | 0.03 | 32 | 1005.8 |
| 20260505191531 | 25 | 171 | 11.3 | 29.0 | 0.00 | 0.03 | 0.03 | 34 | 1006.1 |
| 20260505190036 | 25 | 123 | 9.7 | 32.2 | 0.00 | 0.03 | 0.03 | 34 | 1006.2 |
| 20260505184534 | 25 | 173 | 8.0 | 33.8 | 0.00 | 0.03 | 0.03 | 32 | 1006.2 |
| 20260505183027 | 26 | 143 | 8.0 | 35.4 | 0.00 | 0.03 | 0.03 | 33 | 1006.4 |
| 20260505181528 | 26 | 132 | 9.7 | 29.0 | 0.00 | 0.03 | 0.03 | 33 | 1006.7 |
| 20260505180022 | 25 | 213 | 9.7 | 29.0 | 0.00 | 0.03 | 0.03 | 32 | 1006.9 |
| 20260505174528 | 25 | 184 | 17.7 | 30.6 | 0.00 | 0.03 | 0.03 | 32 | 1006.9 |
| 20260505173017 | 25 | 148 | 11.3 | 32.2 | 0.00 | 0.03 | 0.03 | 36 | 1007.2 |
| 20260505171516 | 25 | 153 | 14.5 | 32.2 | 0.00 | 0.03 | 0.03 | 35 | 1007.1 |
| 20260505170018 | 24 | 116 | 9.7 | 27.4 | 0.00 | 0.03 | 0.03 | 36 | 1007.1 |
| 20260505164512 | 24 | 146 | 9.7 | 19.3 | 0.00 | 0.03 | 0.03 | 38 | 1007.4 |
| 20260505163013 | 24 | 214 | 8.0 | 27.4 | 0.00 | 0.03 | 0.03 | 40 | 1007.5 |
| 20260505161507 | 23 | 123 | 4.8 | 30.6 | 0.00 | 0.03 | 0.03 | 43 | 1007.8 |
| 20260505153106 | 22 | 227 | 6.4 | 17.7 | 0.00 | 0.03 | 0.03 | 47 | 1008.3 |
| 20260505151604 | 21 | 167 | 8.0 | 25.7 | 0.00 | 0.03 | 0.03 | 49 | 1008.2 |
| 20260505124555 | 17 | 171 | 3.2 | 9.7 | 0.00 | 0.03 | 0.03 | 62 | 1008.8 |
| 20260505123050 | 16 | 158 | 4.8 | 12.9 | 0.00 | 0.03 | 0.03 | 65 | 1008.9 |
| 20260505121558 | 15 | 167 | 6.4 | 16.1 | 0.00 | 0.03 | 0.03 | 68 | 1008.8 |
| 20260505120044 | 15 | 157 | 6.4 | 14.5 | 0.00 | 0.03 | 0.03 | 69 | 1008.8 |
| 20260505114540 | 14 | 248 | 4.8 | 12.9 | 0.00 | 0.03 | 0.03 | 72 | 1009.0 |
| 20260505113040 | 13 | 148 | 3.2 | 11.3 | 0.00 | 0.03 | 0.03 | 77 | 1008.8 |
| 20260505111541 | 12 | 136 | 3.2 | 8.0 | 0.00 | 0.03 | 0.03 | 79 | 1008.5 |
| 20260505101535 | 11 | 281 | 0.0 | 3.2 | 0.00 | 0.03 | 0.03 | 88 | 1008.5 |
| 20260505100034 | 11 | 281 | 0.0 | 3.2 | 0.00 | 0.03 | 0.03 | 88 | 1008.3 |
| 20260505094535 | 11 | 281 | 0.0 | 1.6 | 0.00 | 0.03 | 0.03 | 86 | 1008.3 |
| 20260505093034 | 11 | 281 | 0.0 | 3.2 | 0.03 | 0.03 | 0.03 | 85 | 1008.2 |
| 20260505091528 | 12 | 281 | 0.0 | 4.8 | 0.03 | 0.03 | 0.03 | 83 | 1008.1 |
| 20260505090021 | 12 | 287 | 0.0 | 8.0 | 0.03 | 0.03 | 0.03 | 80 | 1008.3 |
| 20260505084519 | 13 | 241 | 4.8 | 16.1 | 0.03 | 0.03 | 0.03 | 75 | 1008.1 |
| 20260505083014 | 13 | 147 | 3.2 | 6.4 | 0.00 | 0.00 | 0.00 | 65 | 1008.3 |